BRISAT (41591 NORAD) Tracking and Keplerian Element Data

This shows tracking and keplerian element data for the satellite.

Feedback or suggestion? Click here.




ElementValue
Catalog41591
NameBRISAT
Epoch Orbit886
Epoch Day319.43060899
Epoch Year2018
RAAN281.4922
Inclination0.0183
Eccentricity0.0002037
Argument of Perigee300.891
Mean Anonmoly137.6303
Mean Motion1.00271935
Decay Rate-1.94E-06
L11 41591U 16039A 18319.43060899 -.00000194 00000-0 00000+0 0 9994
L22 41591 0.0183 281.4922 0002037 300.8910 137.6303 1.00271935 8868

Live tracking and technical data element details for BRISAT (NORAD 41591). BRISAT can be tracked NOW for your location showing map with azimuth and elevation plus other details from your city location.

Track the satellite on the map from your city or location and see movement details for azimuth, elevation, latitude, longitude, range, height, and movement on the map or in text.







IsCatalogInMostPopularTable: catalog: 41591, numindb: 118
Update: records affected: 1



GetName: 41591 BRISAT

Hit Count: updated at: Fri, 16 Nov 2018 11:40:44 GMT